Weather History for Washington, MO

Change the Weather History Date:

Thursday, March 28, 2013

  Actual Average (KSTL) Record (KSTL)
Temperature  
Mean Temperature 46 °F 51 °F  
Max Temperature 57 °F 61 °F 89 °F (1985)
Min Temperature 35 °F 41 °F 21 °F (1934)
Degree Days  
Heating Degree Days 19 15  
Month to date heating degree days 545  
Since 1 July heating degree days 4143  
Cooling Degree Days 0 0  
Month to date cooling degree days 0  
Year to date cooling degree days 0  
Moisture  
Dew Point 32 °F    
Average Humidity 60    
Maximum Humidity 87    
Minimum Humidity 41    
Precipitation  
Precipitation 0.00 in 0.12 in 2.38 in (1977)
Month to date precipitation 2.93  
Year to date precipitation 7.57  
Snow  
Snow 0.00 in 0.00 in 1.20 in (1899)
Month to date snowfall 2.2  
Since 1 July snowfall 17.2  
Snow Depth -    
Sea Level Pressure  
Sea Level Pressure 30.27 in    
Wind  
Wind Speed 4 mph (ESE)    
Max Wind Speed 12 mph    
Max Gust Speed 17 mph    
Visibility 10 miles    
Events      
T = Trace of Precipitation, MM = Missing Value Source: NWS Daily Summary

Daily Weather History Graph

Daily Weather History Graph

Search for Another Location

Airport:

Trip Planner

Search our weather history database for the weather conditions in past years. The results will help you decide how hot, cold, wet, or windy it might be!

Date:

Astronomy

Mar. 28, 2013 Rise Set
Actual Time 6:54 AM CDT 7:23 PM CDT
Civil Twilight 6:27 AM CDT 7:50 PM CDT
Nautical Twilight 5:56 AM CDT 8:21 PM CDT
Astronomical Twilight 5:24 AM CDT 8:54 PM CDT
Moon 9:14 PM CDT (3/28) 7:24 AM CDT (3/28)
Length of Visible Light 13h 22m
Length of Day
12h 29m
Full, 98% of the Moon is Illuminated
Mar 28
Full
Apr 2
Last Quarter
Apr 10
New
Apr 18
First Quarter
Apr 25
Full

Hourly Weather History & Observations

Time (CDT) Temp. Windchill Dew Point Humidity Pressure Visibility Wind Dir Wind Speed Gust Speed Precip Events Conditions
12:15 AM 39.2 °F 35.9 °F 26.6 °F 61% 30.31 in 10.0 mi ESE 4.6 mph - N/A   Overcast
12:35 AM 39.2 °F 37.0 °F 28.4 °F 65% 30.32 in 10.0 mi SE 3.5 mph - N/A   Overcast
12:55 AM 39.2 °F 37.0 °F 28.4 °F 65% 30.32 in 10.0 mi SE 3.5 mph - N/A   Overcast
1:15 AM 39.2 °F - 28.4 °F 65% 30.32 in 10.0 mi Calm Calm - N/A   Overcast
1:35 AM 37.4 °F - 30.2 °F 75% 30.32 in 10.0 mi Calm Calm - N/A   Overcast
1:55 AM 37.4 °F - 32.0 °F 81% 30.31 in 10.0 mi Calm Calm - N/A   Overcast
2:15 AM 35.6 °F 32.8 °F 32.0 °F 87% 30.31 in 10.0 mi SE 3.5 mph - N/A   Overcast
2:35 AM 35.6 °F - 32.0 °F 87% 30.31 in 10.0 mi Calm Calm - N/A   Overcast
2:55 AM 37.4 °F - 28.4 °F 70% 30.31 in 10.0 mi Calm Calm - N/A   Overcast
3:15 AM 37.4 °F - 28.4 °F 70% 30.31 in 10.0 mi Calm Calm - N/A   Overcast
3:35 AM 37.4 °F - 28.4 °F 70% 30.30 in 10.0 mi Calm Calm - N/A   Overcast
3:55 AM 37.4 °F - 32.0 °F 81% 30.30 in 10.0 mi Calm Calm - N/A   Overcast
4:15 AM 35.6 °F - 30.2 °F 81% 30.30 in 10.0 mi Calm Calm - N/A   Overcast
4:35 AM 37.4 °F - 30.2 °F 75% 30.30 in 10.0 mi Calm Calm - N/A   Overcast
4:55 AM 35.6 °F - 32.0 °F 87% 30.31 in 10.0 mi Calm Calm - N/A   Overcast
5:15 AM 35.6 °F - 30.2 °F 81% 30.31 in 10.0 mi Calm Calm - N/A   Overcast
5:35 AM 37.4 °F - 28.4 °F 70% 30.31 in 10.0 mi Calm Calm - N/A   Overcast
5:55 AM 37.4 °F - 28.4 °F 70% 30.32 in 10.0 mi Calm Calm - N/A   Overcast
6:15 AM 37.4 °F - 28.4 °F 70% 30.31 in 10.0 mi Calm Calm - N/A   Overcast
6:35 AM 37.4 °F - 28.4 °F 70% 30.32 in 10.0 mi Calm Calm - N/A   Overcast
6:55 AM 37.4 °F - 28.4 °F 70% 30.32 in 10.0 mi Calm Calm - N/A   Overcast
7:15 AM 37.4 °F - 28.4 °F 70% 30.32 in 10.0 mi Calm Calm - N/A   Overcast
7:35 AM 37.4 °F 33.8 °F 28.4 °F 70% 30.32 in 10.0 mi SE 4.6 mph - N/A   Mostly Cloudy
7:55 AM 37.4 °F 32.8 °F 28.4 °F 70% 30.33 in 10.0 mi SE 5.8 mph - N/A   Mostly Cloudy
8:15 AM 37.4 °F 33.8 °F 28.4 °F 70% 30.33 in 10.0 mi SE 4.6 mph - N/A   Scattered Clouds
8:35 AM 37.4 °F 31.4 °F 28.4 °F 70% 30.33 in 10.0 mi ESE 8.1 mph - N/A   Mostly Cloudy
8:55 AM 39.2 °F 33.0 °F 28.4 °F 65% 30.33 in 10.0 mi SE 9.2 mph - N/A   Overcast
9:15 AM 39.2 °F 33.0 °F 28.4 °F 65% 30.33 in 10.0 mi SE 9.2 mph - N/A   Mostly Cloudy
9:35 AM 39.2 °F 33.6 °F 28.4 °F 65% 30.33 in 10.0 mi SE 8.1 mph - N/A   Mostly Cloudy
9:55 AM 41.0 °F 37.1 °F 28.4 °F 61% 30.33 in 10.0 mi SE 5.8 mph - N/A   Mostly Cloudy
10:15 AM 41.0 °F 35.2 °F 28.4 °F 61% 30.33 in 10.0 mi SE 9.2 mph - N/A   Mostly Cloudy
10:35 AM 42.8 °F 38.6 °F 30.2 °F 61% 30.33 in 10.0 mi ESE 6.9 mph - N/A   Mostly Cloudy
10:55 AM 44.6 °F 39.7 °F 32.0 °F 61% 30.33 in 10.0 mi SE 9.2 mph - N/A   Overcast
11:15 AM 44.6 °F 39.2 °F 32.0 °F 61% 30.33 in 10.0 mi ESE 10.4 mph - N/A   Scattered Clouds
11:35 AM 46.4 °F 42.9 °F 32.0 °F 57% 30.33 in 10.0 mi ESE 6.9 mph - N/A   Clear
11:55 AM 46.4 °F 42.4 °F 32.0 °F 57% 30.33 in 10.0 mi ESE 8.1 mph - N/A   Clear
12:15 PM 48.2 °F - 33.8 °F 58% 30.32 in 10.0 mi SE 6.9 mph - N/A   Partly Cloudy
12:35 PM 50.0 °F - 33.8 °F 54% 30.30 in 10.0 mi SE 8.1 mph - N/A   Partly Cloudy
12:55 PM 50.0 °F - 32.0 °F 50% 30.30 in 10.0 mi ESE 9.2 mph 16.1 mph N/A   Clear
1:15 PM 51.8 °F - 35.6 °F 54% 30.29 in 10.0 mi ESE 8.1 mph 16.1 mph N/A   Clear
1:35 PM 53.6 °F - 35.6 °F 51% 30.28 in 10.0 mi ESE 9.2 mph - N/A   Partly Cloudy
1:55 PM 53.6 °F - 35.6 °F 51% 30.27 in 10.0 mi SE 9.2 mph - N/A   Clear
2:15 PM 55.4 °F - 35.6 °F 47% 30.26 in 10.0 mi SE 10.4 mph - N/A   Scattered Clouds
2:35 PM 55.4 °F - 35.6 °F 47% 30.25 in 10.0 mi ESE 8.1 mph - N/A   Mostly Cloudy
2:55 PM 55.4 °F - 35.6 °F 47% 30.24 in 10.0 mi SE 8.1 mph - N/A   Mostly Cloudy
3:15 PM 55.4 °F - 35.6 °F 47% 30.23 in 10.0 mi ESE 8.1 mph - N/A   Scattered Clouds
3:35 PM 57.2 °F - 35.6 °F 44% 30.22 in 10.0 mi SE 8.1 mph 17.3 mph N/A   Scattered Clouds
3:55 PM 57.2 °F - 35.6 °F 44% 30.21 in 10.0 mi ESE 8.1 mph - N/A   Mostly Cloudy
4:15 PM 57.2 °F - 35.6 °F 44% 30.20 in 10.0 mi ESE 11.5 mph - N/A   Mostly Cloudy
4:35 PM 57.2 °F - 35.6 °F 44% 30.20 in 10.0 mi ESE 9.2 mph - N/A   Mostly Cloudy
4:55 PM 57.2 °F - 33.8 °F 41% 30.20 in 10.0 mi ESE 9.2 mph - N/A   Overcast
5:15 PM 57.2 °F - 35.6 °F 44% 30.20 in 10.0 mi ESE 6.9 mph - N/A   Overcast
5:35 PM 57.2 °F - 35.6 °F 44% 30.20 in 10.0 mi ESE 5.8 mph - N/A   Overcast
5:55 PM 57.2 °F - 35.6 °F 44% 30.20 in 10.0 mi East 3.5 mph - N/A   Overcast
6:15 PM 57.2 °F - 35.6 °F 44% 30.20 in 10.0 mi ESE 5.8 mph - N/A   Mostly Cloudy
6:35 PM 55.4 °F - 35.6 °F 47% 30.20 in 10.0 mi ESE 8.1 mph - N/A   Mostly Cloudy
6:55 PM 55.4 °F - 35.6 °F 47% 30.20 in 10.0 mi Calm Calm - N/A   Scattered Clouds
7:15 PM 53.6 °F - 35.6 °F 51% 30.21 in 10.0 mi ESE 3.5 mph - N/A   Partly Cloudy
7:35 PM 53.6 °F - 35.6 °F 51% 30.21 in 10.0 mi ESE 3.5 mph - N/A   Mostly Cloudy
7:55 PM 53.6 °F - 35.6 °F 51% 30.21 in 10.0 mi ESE 4.6 mph - N/A   Overcast
8:15 PM 53.6 °F - 35.6 °F 51% 30.21 in 10.0 mi ESE 4.6 mph - N/A   Overcast
8:35 PM 53.6 °F - 35.6 °F 51% 30.21 in 10.0 mi ESE 5.8 mph - N/A   Overcast
8:55 PM 51.8 °F - 35.6 °F 54% 30.21 in 10.0 mi East 5.8 mph - N/A   Overcast
9:15 PM 51.8 °F - 35.6 °F 54% 30.22 in 10.0 mi East 6.9 mph - N/A   Overcast
9:35 PM 50.0 °F - 35.6 °F 58% 30.22 in 10.0 mi ESE 6.9 mph - N/A   Overcast
9:55 PM 50.0 °F - 35.6 °F 58% 30.22 in 10.0 mi East 6.9 mph - N/A   Overcast
10:15 PM 50.0 °F - 35.6 °F 58% 30.22 in 10.0 mi East 10.4 mph - N/A   Overcast
10:35 PM 50.0 °F - 35.6 °F 58% 30.22 in 10.0 mi East 9.2 mph - N/A   Overcast
10:55 PM 50.0 °F - 35.6 °F 58% 30.23 in 10.0 mi ESE 8.1 mph - N/A   Overcast
11:15 PM 50.0 °F - 35.6 °F 58% 30.22 in 10.0 mi ESE 6.9 mph - N/A   Overcast
11:35 PM 50.0 °F - 35.6 °F 58% 30.22 in 10.0 mi ESE 4.6 mph - N/A   Overcast
11:55 PM 48.2 °F - 39.2 °F 71% 30.23 in 10.0 mi SSE 5.8 mph - N/A   Overcast